METEOR 2-17 DEB, 29302

Orbit data source: Space-Track

METEOR 2-17 DEB, 29302 is space debris in LEO originally from a launch on Sat, 30 Jan 1988 UTC launched from the Plesetsk Missile And Space Complex (PKMTR). Debris objects in space refer to the collection of defunct objects orbiting the Earth. Examples of debris include non-operational satellites, rocket bodies, and fragments generated from explosions, collisions, or faulty payload assembly.

Loading next visibility...
Identifier
29302, 1988-005R
Orbit
LEO
Country
Flag of CISCIS
Related business
Manufacturer
Unknown
Mission
Spacecraft
Bus & Motor
Unknown
Mass
Unknown
Launch date (UTC)
1988-01-30 (38 years ago)
Launch vehicle
Unknown
Launch site
Plesetsk Missile And Space Complex (PKMTR)
Object type
Payload
Rocket body
Debris
Shape & HBR
Unknown shape, 0.1 m
Radar Cross Section
Small (<0.1 m²)

Expand to show TLE details & history
Last TLE update: 3 days ago

TLE from 3 days ago
0 METEOR 2-17 DEB
1 29302U 88005R   25304.53599519  .00004695  00000-0  27340-2 0  9999
2 29302  82.5522  42.6248 0018249 205.6636 154.3634 14.08305482589564
Epoch: 2025-10-31T12:51Z
TLE epoch observation values (Epoch: 2025-10-31T12:51:49.984Z)
Latitude
-0.00001°
Longitude
169.58751°
Altitude
880.036 km
Speed
7.406 km/s
True Right ascension
02h 50m 29s
True Declination
0° 00' 00"
Sunlit
Object was in full shadow at epoch
Visualization orbit readout
Latitude
Unknown
Longitude
Unknown
Altitude
Unknown
Speed
Unknown
Apparent Right ascension
Unknown
Apparent Declination
Unknown
Sunlit
N/A
Visualization observer readout
Local Sidereal Time
23:52:33
Azimuth
Unknown
Elevation
Unknown
Doppler factor
Unknown
Orbital elements
Apogee altitude
875.508 km
Perigee altitude
849.081 km
Semi-major axis
7,240.432 km
Eccentricity
0.00182
Inclination
82.5522°
RAAN
42.6248°
Arg. of periapsis
205.6636°
True anomaly
154.45369°
Mean anomaly
154.3634°
Eccentric anomaly
154.40856°
Mean motion
3.52287 °/min
Orbital period
102.19 mins
BSTAR
0.002734
Loading maneuver chart data...
Computing Atmospheric mass density...
Loading historical data...
Loading historical data...
Loading historical data...
Loading historical data...
Loading historical data...
Loading historical data...
Loading historical data...

Documentation

Showing up to 5 results
|